STARLINK-1296, 45412

Orbit data source: Space-Track

STARLINK-1296, 45412 is a payload satellite owned by SpaceX/Seattle (US) in LEO that was launched on Wed, 18 Mar 2020 UTC via an FALCON 9 launch vehicle from the Air Force Eastern Test Range (AFETR). Payload-class satellites include a variety of spacecraft equipped with specific instruments for various scientific and technological missions. These include communications satellites like Starlink; space stations such as the ISS; scientific satellites like the Hubble; Earth observation satellites from companies like Planet Labs, Umbra, and HawkEye 360; GPS; miniature CubeSats for education and research; and military/defense satellites.

Loading next visibility...
Identifier
45412, 2020-019BE
Orbit
LEO
Country
Flag of USUS
Related business
Manufacturer
SpaceX/Seattle
Mission
Operational Commercial Communications
Bus & Motor
STARLINK, Unknown motor
Mass
260 kg wet, ~248 kg dry
Launch date (UTC)
2020-03-18 (6 years ago)
Launch vehicle
FALCON 9
Launch site
Air Force Eastern Test Range (AFETR)
Object type
Payload
Rocket body
Debris
Shape & HBR
Box + 1 Pan, 10.1 m
Radar Cross Section
13.562 m², Large (>1 m²)

Expand to show TLE details & history
Last TLE update: 1 day ago

TLE from 1 day ago
0 STARLINK-1296
1 45412U 20019BE  25312.82917109  .00001378  00000-0  11136-3 0  9992
2 45412  53.0539 319.1824 0001578  90.4799 269.6371 15.06404134311647
Epoch: 2025-11-08T19:54Z
TLE epoch observation values (Epoch: 2025-11-08T19:54:00.382Z)
Latitude
0.00001°
Longitude
-27.57235°
Altitude
548.085 km
Speed
7.589 km/s
True Right ascension
21h 16m 43s
True Declination
0° 00' 00"
Sunlit
Object was in daylight at epoch
Visualization orbit readout
Latitude
Unknown
Longitude
Unknown
Altitude
Unknown
Speed
Unknown
Apparent Right ascension
Unknown
Apparent Declination
Unknown
Sunlit
N/A
Visualization observer readout
Local Sidereal Time
19:04:22
Azimuth
Unknown
Elevation
Unknown
Doppler factor
Unknown
Orbital elements
Apogee altitude
548.563 km
Perigee altitude
546.377 km
Semi-major axis
6,925.607 km
Eccentricity
0.00016
Inclination
53.0539°
RAAN
319.1824°
Arg. of periapsis
90.4799°
True anomaly
269.61902°
Mean anomaly
269.6371°
Eccentric anomaly
269.62806°
Mean motion
3.76579 °/min
Orbital period
95.6 mins
BSTAR
0.00011136
Loading maneuver chart data...
Computing Atmospheric mass density...

Documentation

Showing up to 5 results
|